Location: Arborea
(39.7744°N, 8.5819°E)
Time: 00:45:57
(UTC+00:00)

CENTAUR R/B - Pass Details

Date: 24 October 2021
Orbit: 728 x 1459 km, 63.4° (Epoch: 26 November)

Event Time Altitude Azimuth Distance (km) Brightness Sun altitude
Rises 19:52:40 0° 329° (NNW) 4,128 6.3 -38.6°
Reaches altitude 10° 19:55:40 10° 339° (NNW) 3,262 5.6 -39.1°
Enters shadow 19:59:44 27° 4° (N) 2,343 4.5 -39.9°
